Hourly Weather Ruszajny

Today, 11 April, Sunday

Time Temperature Precipitation Wind Pressure Humidity
00:00 +4°C° 0 mm 2 mps 751 mmHg 96%
01:00 +4°C° 0 mm 2 mps 751 mmHg 96%
02:00 +4°C° 0 mm 2 mps 751 mmHg 96%
03:00 +4°C° 0 mm 2 mps 751 mmHg 96%
04:00 +4°C° 0 mm 2 mps 751 mmHg 97%
05:00 +5°C° 0 mm 2 mps 751 mmHg 95%
06:00 +6°C° 0 mm 2 mps 751 mmHg 93%
07:00 +5°C° 0 mm 3 mps 751 mmHg 92%
08:00 +9°C° 0 mm 3 mps 751 mmHg 84%
09:00 +11°C° 0 mm 4 mps 751 mmHg 76%
10:00 +13°C° 0 mm 5 mps 750 mmHg 68%
11:00 +14°C° 0 mm 5 mps 750 mmHg 62%
12:00 +16°C° 0 mm 6 mps 750 mmHg 56%
13:00 +17°C° 0 mm 6 mps 750 mmHg 50%
14:00 +17°C° 0 mm 6 mps 749 mmHg 51%
15:00 +16°C° 0 mm 6 mps 749 mmHg 52%
16:00 +16°C° 0 mm 6 mps 749 mmHg 52%
17:00 +15°C° 0 mm 5 mps 749 mmHg 58%
18:00 +13°C° 0 mm 4 mps 749 mmHg 63%
19:00 +12°C° 0 mm 4 mps 749 mmHg 69%
20:00 +12°C° 0 mm 4 mps 750 mmHg 69%
21:00 +12°C° 0 mm 4 mps 750 mmHg 69%
22:00 +11°C° 0 mm 4 mps 750 mmHg 69%
23:00 +11°C° 0 mm 4 mps 750 mmHg 73%

Tomorrow, 12 April, Monday

Time Temperature Precipitation Wind Pressure Humidity
00:00 +10°C° 0 mm 4 mps 750 mmHg 76%
01:00 +10°C° 0 mm 4 mps 750 mmHg 79%
02:00 +10°C° 0 mm 4 mps 750 mmHg 80%
03:00 +10°C° 0 mm 4 mps 749 mmHg 82%
04:00 +10°C° 0 mm 4 mps 749 mmHg 83%
05:00 +10°C° 0.1 mm 4 mps 749 mmHg 84%
06:00 +10°C° 0.1 mm 4 mps 749 mmHg 84%
07:00 +8°C° 0.1 mm 5 mps 749 mmHg 85%
08:00 +10°C° 0 mm 4 mps 749 mmHg 81%
09:00 +11°C° 0 mm 4 mps 750 mmHg 78%
10:00 +12°C° 0 mm 4 mps 750 mmHg 75%
11:00 +12°C° 0.1 mm 4 mps 750 mmHg 72%
12:00 +13°C° 0.1 mm 4 mps 750 mmHg 69%
13:00 +14°C° 0.1 mm 3 mps 749 mmHg 66%
14:00 +12°C° 0.2 mm 3 mps 750 mmHg 73%
15:00 +10°C° 0.2 mm 4 mps 750 mmHg 79%
16:00 +8°C° 0.2 mm 4 mps 750 mmHg 85%
17:00 +6°C° 0.1 mm 4 mps 750 mmHg 87%
18:00 +5°C° 0.1 mm 5 mps 751 mmHg 88%
19:00 +2°C° 0.1 mm 5 mps 751 mmHg 89%
20:00 +2°C° 0.2 mm 5 mps 752 mmHg 89%
21:00 +1°C° 0.2 mm 5 mps 752 mmHg 89%
22:00 +1°C° 0.2 mm 5 mps 752 mmHg 89%
23:00 +1°C° 0.1 mm 5 mps 753 mmHg 91%

Day after tomorrow, 13 April, Tuesday

Time Temperature Precipitation Wind Pressure Humidity
00:00 +1°C° 0.1 mm 5 mps 753 mmHg 93%
01:00 0°C° 0.1 mm 4 mps 753 mmHg 95%
02:00 +1°C° 0 mm 4 mps 753 mmHg 93%
03:00 +2°C° 0 mm 3 mps 753 mmHg 91%
04:00 +2°C° 0 mm 3 mps 753 mmHg 90%
05:00 +2°C° 0 mm 3 mps 754 mmHg 86%
06:00 +3°C° 0 mm 4 mps 754 mmHg 83%
07:00 +3°C° 0 mm 4 mps 754 mmHg 80%
08:00 +4°C° 0 mm 4 mps 754 mmHg 74%
09:00 +4°C° 0 mm 4 mps 755 mmHg 68%
10:00 +5°C° 0 mm 4 mps 755 mmHg 63%
11:00 +5°C° 0 mm 4 mps 755 mmHg 58%
12:00 +6°C° 0 mm 4 mps 755 mmHg 53%
13:00 +7°C° 0 mm 4 mps 755 mmHg 48%
14:00 +6°C° 0 mm 4 mps 755 mmHg 48%
15:00 +6°C° 0 mm 4 mps 755 mmHg 48%
16:00 +6°C° 0 mm 4 mps 755 mmHg 48%
17:00 +5°C° 0 mm 4 mps 755 mmHg 52%
18:00 +4°C° 0 mm 3 mps 755 mmHg 55%
19:00 +3°C° 0 mm 3 mps 755 mmHg 58%
20:00 +3°C° 0 mm 3 mps 755 mmHg 64%
21:00 +2°C° 0 mm 3 mps 755 mmHg 69%
22:00 +2°C° 0 mm 3 mps 755 mmHg 75%
23:00 +1°C° 0.1 mm 3 mps 755 mmHg 79%

14 April, Wednesday

Time Temperature Precipitation Wind Pressure Humidity
00:00 +1°C° 0.1 mm 3 mps 755 mmHg 83%
01:00 +1°C° 0.1 mm 3 mps 755 mmHg 87%
02:00 +1°C° 0.1 mm 3 mps 755 mmHg 87%
03:00 +1°C° 0.1 mm 3 mps 755 mmHg 88%
04:00 +1°C° 0.1 mm 3 mps 754 mmHg 89%
05:00 +1°C° 0.1 mm 3 mps 755 mmHg 87%
06:00 0°C° 0.1 mm 4 mps 755 mmHg 85%
07:00 0°C° 0.1 mm 4 mps 755 mmHg 83%
08:00 +1°C° 0.1 mm 5 mps 755 mmHg 79%
09:00 +2°C° 0.1 mm 5 mps 755 mmHg 75%
10:00 +2°C° 0.1 mm 5 mps 755 mmHg 71%
11:00 +2°C° 0.1 mm 6 mps 754 mmHg 71%
12:00 +3°C° 0.1 mm 6 mps 754 mmHg 71%
13:00 +3°C° 0.1 mm 6 mps 754 mmHg 71%
14:00 +3°C° 0.1 mm 6 mps 754 mmHg 74%
15:00 +3°C° 0.1 mm 6 mps 754 mmHg 76%
16:00 +3°C° 0.1 mm 5 mps 753 mmHg 79%
17:00 +2°C° 0.1 mm 5 mps 753 mmHg 82%
18:00 +2°C° 0.1 mm 5 mps 754 mmHg 85%
19:00 +1°C° 0.1 mm 5 mps 754 mmHg 88%
20:00 +1°C° 0.3 mm 6 mps 753 mmHg 90%
21:00 +1°C° 0.3 mm 6 mps 753 mmHg 91%
22:00 +1°C° 0.3 mm 6 mps 753 mmHg 93%
23:00 -1°C° 0.4 mm 6 mps 753 mmHg 93%

15 April, Thursday

Time Temperature Precipitation Wind Pressure Humidity
00:00 -1°C° 0.4 mm 7 mps 753 mmHg 94%
01:00 -2°C° 0.4 mm 7 mps 753 mmHg 94%
02:00 -2°C° 0.3 mm 7 mps 753 mmHg 95%
03:00 -2°C° 0.3 mm 7 mps 753 mmHg 96%
04:00 -2°C° 0.3 mm 6 mps 752 mmHg 97%
05:00 -2°C° 0.3 mm 6 mps 753 mmHg 96%
06:00 -2°C° 0.3 mm 6 mps 753 mmHg 96%
07:00 -2°C° 0.3 mm 6 mps 753 mmHg 96%
08:00 -1°C° 0.1 mm 6 mps 753 mmHg 93%
09:00 -1°C° 0.1 mm 6 mps 754 mmHg 90%
10:00 -1°C° 0.1 mm 6 mps 754 mmHg 87%
11:00 -1°C° 0.1 mm 6 mps 754 mmHg 87%
12:00 +1°C° 0.1 mm 6 mps 754 mmHg 88%
13:00 +1°C° 0.1 mm 6 mps 755 mmHg 88%
14:00 +1°C° 0 mm 6 mps 755 mmHg 86%
15:00 +1°C° 0 mm 6 mps 755 mmHg 85%
16:00 +1°C° 0 mm 6 mps 755 mmHg 83%
17:00 +2°C° 0 mm 5 mps 755 mmHg 82%
18:00 +3°C° 0 mm 4 mps 755 mmHg 82%
19:00 +3°C° 0 mm 4 mps 756 mmHg 81%
20:00 +3°C° 0 mm 4 mps 756 mmHg 80%
21:00 +3°C° 0 mm 4 mps 756 mmHg 79%
22:00 +2°C° 0 mm 5 mps 756 mmHg 78%
23:00 +1°C° 0 mm 5 mps 756 mmHg 80%

16 April, Friday

Time Temperature Precipitation Wind Pressure Humidity
00:00 +1°C° 0 mm 5 mps 756 mmHg 82%
01:00 0°C° 0 mm 5 mps 756 mmHg 83%
02:00 0°C° 0 mm 5 mps 756 mmHg 84%
03:00 0°C° 0 mm 5 mps 756 mmHg 85%
04:00 -1°C° 0 mm 5 mps 757 mmHg 86%
05:00 0°C° 0 mm 5 mps 757 mmHg 83%
06:00 +1°C° 0 mm 5 mps 757 mmHg 81%
07:00 +1°C° 0 mm 5 mps 758 mmHg 78%
08:00 +3°C° 0 mm 6 mps 758 mmHg 71%
09:00 +4°C° 0 mm 6 mps 758 mmHg 64%
10:00 +7°C° 0 mm 6 mps 758 mmHg 57%
11:00 +8°C° 0 mm 6 mps 758 mmHg 53%
12:00 +9°C° 0 mm 6 mps 759 mmHg 50%
13:00 +10°C° 0 mm 6 mps 759 mmHg 47%
14:00 +10°C° 0 mm 6 mps 759 mmHg 48%
15:00 +10°C° 0 mm 5 mps 759 mmHg 49%
16:00 +10°C° 0 mm 5 mps 759 mmHg 50%
17:00 +8°C° 0 mm 4 mps 759 mmHg 58%
18:00 +7°C° 0 mm 3 mps 760 mmHg 65%
19:00 +5°C° 0 mm 3 mps 760 mmHg 73%
20:00 +4°C° 0 mm 3 mps 760 mmHg 75%
21:00 +3°C° 0 mm 3 mps 761 mmHg 77%
22:00 +3°C° 0 mm 3 mps 761 mmHg 79%
23:00 +3°C° 0 mm 2 mps 761 mmHg 79%
Show more